Location: Leuk
(46.3174°N, 7.6341°E)
Time: 14:23:13
(UTC+00:00)

Iridium 51 - Pass Details

Date: 09 March 2021
Orbit: 456 x 741 km, 86.4° (Epoch: 14 April)

Event Time Altitude Azimuth Distance (km) Brightness Sun altitude
Rises 04:05:04 0° 359° (N) 2,686 8.0 -19.5°
Reaches altitude 10° 04:07:18 10° 3° (N) 1,748 7.1 -19.1°
Maximum altitude 04:11:03 63° 84° (E) 552 4.5 -18.4°
Drops below altitude 10° 04:14:32 10° 167° (SSE) 1,628 6.7 -17.9°
Sets 04:16:33 0° 171° (S) 2,480 7.6 -17.5°
